2019-072B (44704 NORAD) Tracking and Keplerian Element Data

This shows tracking and keplerian element data for the satellite.

Feedback or suggestion? Click here.




ElementValue
Catalog44704
Name2019-072B
Epoch Orbit146
Epoch Day316.80026473
Epoch Year2019
RAAN29.5203
Inclination97.4903
Eccentricity0.001622
Argument of Perigee247.9381
Mean Anonmoly256.7266
Mean Motion15.2357856
Decay Rate0.00061284
L11 44704U 19072B 19316.80026473 .00061284 00000-0 25373-2 0 9991
L22 44704 97.4903 29.5203 0016220 247.9381 256.7266 15.23578560 1466

Live tracking and technical data element details for 2019-072B (NORAD 44704). 2019-072B can be tracked NOW for your location showing map with azimuth and elevation plus other details from your city location.

Track the satellite on the map from your city or location and see movement details for azimuth, elevation, latitude, longitude, range, height, and movement on the map or in text.







IsCatalogInMostPopularTable: catalog: 44704, numindb: 6
Update: records affected: 1



GetName: 44704 2019-072B

Hit Count: updated at: Thu, 14 Nov 2019 06:49:44 GMT